Miscellaneous Local Product
Issued by NWS North Platte, NE

Home | Current Version | Previous Version | Text Only | Print | Product List | Glossary On
Versions: 1 2 3 4 5 6 7 8 9 10 11 12 13 14 15 16 17 18 19 20 21 22 23 24 25 26 27 28 29 30 31 32 33 34 35 36 37 38 39 40 41 42 43 44 45 46 47 48 49 50
000
AXUS43 KLBF 250110
MISLBF


WESTERN AND NORTH CENTRAL NEBRASKA HOURLY WEATHER ROUNDUP
NATIONAL WEATHER SERVICE NORTH PLATTE NE
800 PM CDT MON APR 24 2017

NOTE: "FAIR" INDICATES FEW OR NO CLOUDS BELOW 12,000 FEET WITH NO
SIGNIFICANT WEATHER AND/OR OBSTRUCTIONS TO VISIBILITY.

NOTE: STATIONS NOT REPORTING VARIABLES SUCH AS SKY/WEATHER OR
PRESSURE ARE PROVIDED BY RAWS AND APRS NETWORKS AND ARE NOT UNDER
NATIONAL WEATHER SERVICE QUALITY CONTROL.

...OBSERVATIONS IN AND NEAR THE EASTERN PANHANDLE OF NEBRASKA...

CITY           SKY/WX    TMP DP  RH WIND       PRES   REMARKS
PINE RIDGE     MOCLDY    57  43  59 NE10      29.56F
CHADRON        CLOUDY    58  42  55 NE9       29.55S
ALLIANCE       CLOUDY    57  36  45 S5        29.57R
SIDNEY         CLOUDY    59  34  39 NW14G23   29.59S
CRESCENT LAKE    N/A     62  32  32 NE5G12      N/A
$$

...OBSERVATIONS IN NORTHERN NEBRASKA AND FAR SOUTHERN SOUTH DAKOTA...

CITY           SKY/WX    TMP DP  RH WIND       PRES   REMARKS
WINNER         FAIR      53  41  63 N12       29.61R
VALENTINE      PTCLDY    56  40  55 N10       29.59F
THEDFORD       CLOUDY    57  42  55 NE12      29.57F
AINSWORTH      MOCLDY    52  43  70 N12       29.60F
O`NEILL        PTCLDY    53  39  58 NW13G18   29.59R
ORD            PTCLDY    59  41  51 NW13      29.55R
BROKEN BOW     CLOUDY    62  42  47 NE12      29.57R
VALENTINE NWR    N/A     56  41  56 NE8         N/A
HALSEY           N/A     58  40  51 N6G14       N/A
BUTTE            N/A     49  40  71 CALM        N/A
CHAMBERS         N/A     56  39  53 W9          N/A
EWING            N/A     55  43  64 N10         N/A
$$

...OBSERVATIONS IN SOUTHWEST NEBRASKA AND FAR NORTHEAST COLORADO...

CITY           SKY/WX    TMP DP  RH WIND       PRES   REMARKS
HOLYOKE        FAIR      64  36  34 NE3       29.55F
IMPERIAL       CLOUDY    64  37  36 NE5       29.54F
OGALLALA       PTCLDY    67  30  25 E5        29.54S
NORTH PLATTE   CLEAR     64  41  42 NE13      29.55R
MCCOOK         CLOUDY    69  44  40 NE12      29.50F
LEXINGTON      CLEAR     64  42  44 NE8       29.56R
STAPLETON        N/A     58  42  56 E3G12       N/A
GOTHENBURG       N/A     67  40  36 E8          N/A
CALLAWAY         N/A     65  44  47 NE13        N/A
$$

...OBSERVATIONS IN CENTRAL LINCOLN COUNTY AREA...

CITY           SKY/WX    TMP DP  RH WIND       PRES   REMARKS
N.P. AIRPORT   CLEAR     64  41  42 NE13      29.55R
N.P. DOWNTOWN    N/A     63  43  48 NE12G18     N/A
N.P. HILLCREST   N/A     61  42  48 E17         N/A
$$

...SOME OBSERVATIONS FROM AROUND THE REGION...

CITY           SKY/WX    TMP DP  RH WIND       PRES   REMARKS
DENVER         CLOUDY    59  36  42 NE16      29.54S
LIMON          CLOUDY    59  36  42 E12       29.56F
ASPEN          CLOUDY    48  29  47 S18       29.70F
LARAMIE        CLOUDY    46  34  62 S16       29.59F
CASPER         CLOUDY    52  33  48 S7        29.50F
CHEYENNE       LGT RAIN  44  40  85 N8        29.62F
SCOTTSBLUFF    LGT RAIN  57  37  47 N13       29.58S
GRAND ISLAND   CLOUDY    68  43  40 N13       29.53R
OMAHA          MOCLDY    72  42  34 S12G22    29.51S
SIOUX FALLS    MOCLDY    61  47  59 NW12      29.50R
PIERRE         PTCLDY    46  37  71 N16       29.61R
RAPID CITY     PTCLDY    54  38  54 NE13      29.58S
BISMARCK       CLOUDY    36  30  79 N13       29.70F WCI  27
KANSAS CITY    PTCLDY    68  40  35 S17       29.60S
HILL CITY      PTCLDY    70  47  43 NE9       29.49F
WICHITA        CLOUDY    68  52  56 S12       29.55F
DODGE CITY     CLOUDY    71  50  47 SE12      29.50F
OKLAHOMA CITY  MOCLDY    68  50  52 S14       29.58F
DALLAS         PTCLDY    73  49  42 S16G24    29.65F
AMARILLO       CLOUDY    76  27  16 SW12      29.51F
$$




USA.gov is the U.S. government's official web portal to all federal, state and local government web resources and services.